Regional Weather Roundup
Issued by NWS Green Bay, WI

Home | Current Version | Previous Version | Graphics & Text | Print | Product List | Glossary Off
Versions: 1 2 3 4 5 6 7 8 9 10 11 12 13 14 15 16 17 18 19 20 21 22 23 24 25 26 27 28 29 30 31 32 33 34 35 36 37 38 39 40 41 42 43 44 45 46 47 48 49 50

000
ASUS43 KGRB 300000
RWRGRB

NORTH-CENTRAL AND NORTHEAST WISCONSIN REGIONAL WEATHER ROUNDUP
NATIONAL WEATHER SERVICE GREEN BAY WI
700 PM CDT WED MAR 29 2017

WIZ005-009-010>012-018-019-300100-
NORTH CENTRAL WISCONSIN

CITY           SKY/WX    TMP DP  RH WIND       PRES   REMARKS
IRONWOOD       CLOUDY    47  30  51 E5        30.20F
MANITOWISH WTR NOT AVBL
ARBOR VITAE    NOT AVBL
EAGLE RIVER    NOT AVBL
LAND O LAKES   NOT AVBL
RHINELANDER    CLOUDY    44  29  55 SE7       30.20F
PHILLIPS       NOT AVBL
ANTIGO         NOT AVBL
TOMAHAWK       NOT AVBL
MERRILL        NOT AVBL
$$

WIZ013-073-300100-
NORTHEAST WISCONSIN

CITY           SKY/WX    TMP DP  RH WIND       PRES   REMARKS
IRON MOUNTAIN  CLOUDY    42  27  55 SE3       30.22F
MARINETTE        N/A     37  26  64 E12       30.25F
$$

WIZ017-030-035>037-045-300100-
CENTRAL WISCONSIN

CITY           SKY/WX    TMP DP  RH WIND       PRES   REMARKS
MEDFORD        NOT AVBL
WAUSAU         CLOUDY    42  29  59 SE9       30.19S
MOSINEE        MOCLDY    41  28  60 E9        30.21R
MARSHFIELD     CLOUDY    42  31  64 E7        30.18F
WISC RAPIDS    LGT RAIN  40  36  86 E7        30.21F
STEVENS POINT  NOT AVBL
WAUPACA        NOT AVBL
SHAWANO        NOT AVBL
CLINTONVILLE   NOT AVBL
WAUTOMA        CLOUDY    42  30  62 NE14      30.21F
$$

WIZ038-039-048-051-300100-
FOX VALLEY

CITY           SKY/WX    TMP DP  RH WIND       PRES   REMARKS
NWS GREEN BAY  CLOUDY    39  30  70 NE9       30.24R
APPLETON       CLOUDY    39  28  65 NE8       30.22R
OSHKOSH        CLOUDY    41  30  65 NE10      30.21R
FOND DU LAC    CLOUDY    41  29  62 NE14      30.21R
$$

WIZ022-050-052-300100-
EAST CENTRAL WISCONSIN

CITY           SKY/WX    TMP DP  RH WIND       PRES   REMARKS
EPHRAIM        NOT AVBL
WASHINGTON ISL NOT AVBL
STURGEON BAY   CLOUDY    37  27  67 NE8       30.21F
MANITOWOC      NOT AVBL
SHEBOYGAN      CLOUDY    38  31  76 NE16G25   30.20S
$$

LMZ563-521-522-541>543-300100-
LAKESHORE

STATION/POSITION TIME  TEMP    WIND        PRES    VSBY  WAVE
                       AIR SEA DIR/SP/G                  HT/PER
                 (UTC) (F)     (DEG/KT/KT) (MB)    (MI)  (FT/S)
SHEBOYGAN LKSHOR 2300   36      10/ 19/ 21 1023.0F
KEWAUNEE LKSHORE 2330   36      30/ 12/ 16 1023.0F
NORTHPORT PIER   2340   36      60/ 13/ 17 1024.7F
CHAMBERS ISLAND  2340   34      20/  6/  8 1024.4S
MENOMINEE LKSHOR 2318   34      10/  9/ 11 1023.9
$$




USA.gov is the U.S. government's official web portal to all federal, state and local government web resources and services.